1495893600.87,30743,15.0,74242.0,8.17,-32.63,-31.95,0,*7A
1495893602.09,30744,15.0,74242.3,8.17,-32.51,-32.13,0,*71
1495893603.31,30745,15.0,74246.0,8.15,-35.23,-34.77,0,*74
1495893604.56,30746,15.0,74250.0,8.07,-34.71,-34.31,0,*70
1495893605.81,30747,15.0,74248.8,8.03,-36.07,-35.65,0,*76
1495893607.04,30748,15.0,74246.5,7.99,-36.97,-36.67,0,*7D
1495893608.28,30749,15.0,74242.8,7.95,-36.19,-35.89,0,*75
1495893609.54,30750,15.0,74246.5,7.89,-36.13,-35.83,0,*70
1495893610.79,30751,15.0,74246.8,7.85,-35.95,-35.53,0,*7D
1495893612.0,30752,15.0,74244.0,7.81,-36.55,-36.07,0,*77
1495893613.25,30753,15.0,74248.5,7.79,-35.35,-34.95,0,*7D
1495893614.46,30754,15.0,74246.3,7.73,-35.59,-35.13,0,*75
1495893615.66,30755,15.0,74246.8,7.71,-35.29,-34.89,0,*73
1495893616.91,30756,15.0,74244.5,7.67,-33.61,-33.09,0,*72
1495893618.15,30757,15.0,74246.3,7.65,-35.17,-34.65,0,*7B
1495893619.38,30758,15.0,74250.8,7.63,-36.37,-36.07,0,*75
1495893620.61,30759,15.0,74244.8,7.61,-35.01,-34.47,0,*76
1495893621.82,30760,15.0,74246.3,7.55,-36.31,-35.71,0,*7F
1495893623.08,30761,15.0,74250.5,7.53,-36.25,-35.71,0,*7D
1495893624.35,30762,15.0,74248.8,7.53,-36.13,-35.53,0,*7B
1495893625.6,30763,15.0,74250.5,7.47,-34.53,-33.95,0,*75
1495893626.82,30764,15.0,74248.8,7.43,-33.15,-32.57,0,*7C
1495893628.06,30765,15.0,74250.3,7.41,-32.97,-32.63,0,*73
1495893629.31,30766,15.0,74248.8,7.43,-31.73,-31.01,0,*7C
1495893630.56,30767,15.0,74244.3,7.43,-31.17,-30.61,0,*78
1495893631.78,30768,15.0,74246.8,7.47,-33.03,-32.57,0,*73
1495893633.06,30769,15.0,74246.5,7.47,-33.31,-32.85,0,*7C
1495893634.3,30770,15.0,74242.5,7.43,-33.15,-32.63,0,*7E
1495893635.56,30771,15.0,74240.3,7.43,-31.51,-30.83,0,*71
1495893636.79,30772,15.0,74244.5,7.41,-31.33,-30.77,0,*7F
1495893638.03,30773,15.0,74254.0,7.43,-32.29,-31.67,0,*74
1495893639.23,30774,15.0,74252.5,7.41,-33.67,-33.21,0,*7A
1495893640.42,30775,15.0,74248.5,7.41,-32.57,-32.13,0,*79
1495893641.7,30776,15.0,74248.8,7.39,-30.95,-30.39,0,*73
1495893642.92,30777,15.0,74250.8,7.41,-32.75,-32.13,0,*7B
1495893644.17,30778,15.0,74250.3,7.41,-31.95,-31.39,0,*72
1495893645.39,30779,15.0,74246.5,7.41,-31.17,-30.51,0,*76
1495893646.64,30780,15.0,74248.5,7.41,-29.39,-28.75,0,*7A
1495893647.87,30781,15.0,74248.0,7.43,-29.07,-28.37,0,*72
1495893649.14,30782,15.0,74248.0,7.47,-28.59,-27.99,0,*74
1495893650.4,30783,15.0,74250.5,7.49,-30.77,-30.27,0,*7D
1495893651.63,30784,15.0,74248.8,7.49,-31.79,-31.17,0,*77
1495893652.88,30785,15.0,74248.5,7.49,-31.33,-30.55,0,*7F
1495893654.13,30786,15.0,74246.8,7.51,-30.73,-30.05,0,*75
1495893655.38,30787,15.0,74242.8,7.51,-30.51,-29.89,0,*78
1495893656.61,30788,15.0,74242.5,7.51,-29.01,-28.31,0,*78
1495893657.85,30789,15.0,74240.8,7.53,-27.89,-27.07,0,*7F
1495893659.1,30790,15.0,74242.8,7.53,-27.23,-26.45,0,*70
1495893660.35,30791,15.0,74246.5,7.57,-27.29,-26.55,0,*7E
1495893661.6,30792,15.0,74244.3,7.61,-28.47,-27.93,0,*74
1495893662.88,30793,15.0,74248.8,7.65,-28.05,-27.39,0,*77
1495893664.12,30794,15.0,74246.5,7.67,-27.39,-26.71,0,*7F
1495893665.38,30795,15.0,74244.8,7.71,-26.97,-26.29,0,*71
1495893666.62,30796,15.0,74250.8,7.75,-27.39,-26.71,0,*7E
1495893667.87,30797,15.0,74252.8,7.75,-27.61,-26.93,0,*7E
1495893669.1,30798,15.0,74254.3,7.77,-30.33,-29.67,0,*76
1495893670.32,30799,15.0,74250.0,7.79,-29.95,-29.39,0,*76
1495893671.55,30800,15.0,74250.0,7.79,-29.17,-28.53,0,*7E
1495893672.8,30801,15.0,74250.0,7.81,-29.13,-28.47,0,*79
1495893674.0,30802,15.0,74250.0,7.81,-29.57,-28.97,0,*77
1495893675.22,30803,15.0,74248.0,7.79,-30.05,-29.45,0,*70
1495893676.47,30804,15.0,74248.5,7.79,-29.01,-28.43,0,*7C
1495893677.7,30805,15.0,74252.8,7.79,-28.85,-28.25,0,*70
1495893678.99,30806,15.0,74252.5,7.83,-31.11,-30.61,0,*7A
1495893680.21,30807,15.0,74250.5,7.81,-30.45,-29.73,0,*72
1495893681.44,30808,15.0,74254.8,7.81,-30.17,-29.57,0,*7C
1495893682.69,30809,15.0,74246.8,7.83,-30.27,-29.73,0,*7A
1495893683.97,30810,15.0,74250.0,7.83,-31.11,-30.55,0,*7A
1495893685.2,30811,15.0,74250.8,7.81,-31.23,-30.45,0,*79
1495893686.44,30812,15.0,74234.3,7.79,-31.57,-30.67,0,*7E
1495893687.66,30813,15.0,74234.8,7.79,-29.39,-28.69,0,*79
1495893688.88,30814,15.0,74234.0,7.79,-30.23,-30.05,0,*7E
1495893690.12,30815,15.0,74232.5,7.79,-35.65,-35.35,0,*7E
1495893691.38,30816,15.06,74236.0,7.77,-33.37,-32.97,0,*7D
1495893692.62,30817,15.0,74244.5,7.73,-31.05,-30.55,0,*77
1495893693.84,30818,15.0,74244.5,7.73,-30.23,-29.57,0,*77
1495893695.08,30819,15.0,74248.3,7.73,-29.17,-28.53,0,*7C
1495893696.36,30820,15.0,74246.3,7.77,-28.05,-27.39,0,*73
1495893697.59,30821,15.0,74244.0,7.79,-28.21,-27.55,0,*70
1495893698.84,30822,15.0,74244.0,7.83,-27.67,-26.93,0,*70
1495893700.09,30823,15.0,74250.0,7.83,-27.93,-27.45,0,*70
1495893701.32,30824,15.0,74248.0,7.85,-27.29,-26.55,0,*70
1495893702.6,30825,15.0,74248.0,7.87,-27.39,-26.55,0,*72
1495893703.81,30826,15.0,74250.0,7.89,-27.67,-27.03,0,*76
1495893705.04,30827,15.0,74248.3,7.93,-28.85,-28.21,0,*70
1495893706.27,30828,15.0,74256.3,7.97,-28.63,-27.93,0,*75
1495893707.53,30829,15.0,74252.8,7.95,-29.83,-29.17,0,*7B
1495893708.8,30830,15.06,74258.5,7.95,-30.77,-30.39,0,*74
1495893710.08,30831,15.0,74250.3,7.95,-33.09,-32.85,0,*7A
1495893711.34,30832,15.0,74254.5,7.89,-35.83,-35.65,0,*79
1495893712.58,30833,15.0,74248.8,7.85,-35.53,-35.07,0,*7D
1495893713.81,30834,15.0,74248.0,7.81,-35.47,-35.07,0,*7B
1495893715.06,30835,15.0,74248.3,7.77,-35.35,-34.59,0,*7C
1495893716.27,30836,15.0,74250.5,7.75,-32.29,-31.79,0,*70
1495893717.52,30837,15.0,74248.8,7.73,-34.31,-33.83,0,*7F
1495893718.72,30838,15.0,74248.3,7.67,-33.67,-33.15,0,*7E
1495893719.96,30839,15.0,74250.5,7.67,-33.77,-33.09,0,*73
1495893721.19,30840,15.0,74250.3,7.63,-36.07,-35.53,0,*72
1495893722.41,30841,15.0,74250.8,7.59,-36.79,-36.31,0,*74
1495893723.64,30842,15.0,74254.8,7.55,-36.67,-36.13,0,*74
1495893724.87,30843,15.06,74258.3,7.51,-36.13,-35.77,0,*73
1495893726.12,30844,15.06,74256.8,7.47,-34.71,-34.19,0,*7C
1495893727.34,30845,15.0,74258.5,7.47,-34.41,-34.13,0,*74
1495893728.54,30846,15.0,74254.5,7.41,-33.67,-33.21,0,*74
1495893729.74,30847,15.0,74258.5,7.41,-34.25,-33.67,0,*76
1495893730.99,30848,15.0,74256.0,7.39,-34.25,-33.61,0,*70
1495893732.22,30849,15.0,74254.3,7.37,-34.53,-33.83,0,*72
1495893733.45,30850,15.0,74252.8,7.35,-34.13,-32.91,0,*7E
1495893734.68,30851,15.0,74250.8,7.33,-31.73,-29.61,0,*7F
1495893735.9,30852,15.0,74248.5,7.35,-33.95,-31.67,0,*7F
1495893737.15,30853,15.0,74248.5,7.33,-31.91,-30.51,0,*7A
1495893738.36,30854,15.0,74246.5,7.33,-30.45,-30.83,0,*7A
1495893739.61,30855,15.0,74242.0,7.29,-31.73,-32.45,0,*7C
1495893740.86,30856,15.0,74236.3,7.29,-31.39,-31.91,0,*7B
1495893742.12,30857,15.0,74236.5,7.29,-30.89,-31.61,0,*7F
1495893743.37,30858,15.0,74242.5,7.27,-34.53,-34.77,0,*7F
1495893744.58,30859,15.06,74248.0,7.25,-32.39,-32.39,0,*7A
1495893745.78,30860,15.0,74246.5,7.21,-36.31,-36.07,0,*71
1495893747.04,30861,15.0,74244.5,7.19,-36.19,-35.95,0,*79
1495893748.32,30862,15.0,74246.0,7.15,-34.31,-33.77,0,*74
1495893749.56,30863,15.0,74244.8,7.15,-32.29,-31.67,0,*79
1495893750.82,30864,15.0,74250.3,7.15,-31.29,-30.73,0,*79
1495893752.07,30865,15.0,74248.0,7.15,-33.95,-33.61,0,*7D
1495893753.32,30866,15.0,74248.5,7.13,-34.65,-34.19,0,*78
1495893754.59,30867,15.06,74250.8,7.11,-34.95,-34.35,0,*7A
1495893755.84,30868,15.0,74250.0,7.07,-35.77,-35.35,0,*7E
1495893757.09,30869,15.06,74250.0,7.07,-33.95,-33.49,0,*78
1495893758.37,30870,15.0,74248.3,7.07,-31.91,-31.23,0,*78
1495893759.61,30871,15.0,74246.0,7.05,-29.23,-28.63,0,*77
1495893760.83,30872,15.06,74250.0,7.11,-28.69,-27.89,0,*75
1495893762.06,30873,15.0,74248.3,7.15,-29.83,-29.07,0,*7D
1495893763.29,30874,15.06,74248.8,7.17,-31.85,-31.29,0,*72
1495893764.48,30875,15.0,74250.8,7.13,-30.23,-29.67,0,*79
1495893765.73,30876,15.0,74252.0,7.13,-30.77,-30.05,0,*77
1495893766.99,30877,15.0,74248.3,7.17,-31.91,-31.23,0,*7E
1495893768.2,30878,15.0,74248.0,7.17,-31.17,-30.67,0,*7E
1495893769.45,30879,15.06,74256.0,7.15,-32.51,-31.85,0,*71
1495893770.69,30880,15.0,74248.5,7.15,-32.01,-31.45,0,*7E
1495893771.95,30881,15.06,74250.5,7.15,-32.69,-32.19,0,*7B
1495893773.16,30882,15.0,74246.3,7.13,-34.71,-34.13,0,*7D
1495893774.36,30883,15.06,74246.0,7.13,-33.03,-32.91,0,*72
1495893775.59,30884,15.06,74236.3,7.13,-32.51,-31.95,0,*74
1495893776.8,30885,15.06,74238.3,7.09,-32.23,-31.57,0,*75
1495893778.0,30886,15.0,74240.3,7.09,-30.33,-29.95,0,*72
1495893779.27,30887,15.0,74236.8,7.11,-28.75,-28.21,0,*7F
1495893780.47,30888,15.0,74238.5,7.13,-28.53,-27.77,0,*7A
1495893781.73,30889,15.06,74242.8,7.17,-28.25,-27.61,0,*79
1495893782.96,30890,15.06,74246.5,7.21,-28.85,-28.21,0,*75
1495893784.19,30891,15.06,74244.3,7.21,-27.93,-27.23,0,*71
1495893785.42,30892,15.0,74240.3,7.27,-28.69,-28.15,0,*74
1495893786.68,30893,15.06,74246.5,7.27,-28.37,-27.61,0,*72
1495893787.93,30894,15.0,74252.5,7.29,-29.17,-28.75,0,*72
1495893789.2,30895,15.06,74254.8,7.31,-29.35,-28.75,0,*7A
1495893790.45,30896,15.0,74256.0,7.35,-30.95,-30.45,0,*75
1495893791.69,30897,15.06,74258.5,7.33,-33.67,-33.27,0,*7B
1495893792.92,30898,15.06,74252.5,7.29,-34.07,-33.61,0,*7C
1495893794.18,30899,15.0,74250.0,7.29,-32.79,-32.07,0,*73
1495893795.43,30900,15.0,74250.3,7.27,-31.33,-30.73,0,*70
1495893796.67,30901,15.06,74254.0,7.25,-30.39,-29.73,0,*70
1495893797.95,30902,15.06,74256.0,7.27,-31.11,-30.55,0,*76
1495893799.18,30903,15.06,74252.3,7.25,-32.23,-31.61,0,*71
1495893800.41,30904,15.06,74248.8,7.25,-31.95,-31.17,0,*79
1495893801.66,30905,15.0,74246.3,7.25,-30.05,-29.51,0,*7B
1495893802.91,30906,15.06,74252.0,7.27,-31.61,-31.05,0,*71
1495893804.16,30907,15.0,74250.0,7.27,-29.17,-28.53,0,*73
1495893805.41,30908,15.06,74246.0,7.29,-28.47,-27.99,0,*7F
1495893806.66,30909,15.06,74246.0,7.29,-29.13,-28.47,0,*72
1495893807.92,30910,15.0,74242.5,7.33,-29.39,-28.75,0,*78
1495893809.2,30911,15.06,74242.0,7.35,-29.39,-28.63,0,*78
1495893810.45,30912,15.0,74236.8,7.35,-28.31,-27.45,0,*79
1495893811.69,30913,15.06,74240.0,7.39,-28.47,-27.77,0,*74
1495893812.95,30914,15.06,74240.8,7.39,-28.31,-27.61,0,*75
1495893814.2,30915,15.0,74240.3,7.43,-27.93,-27.35,0,*7F
1495893815.44,30916,15.06,74246.3,7.43,-29.29,-28.53,0,*7C
1495893816.67,30917,15.0,74240.8,7.47,-27.67,-27.03,0,*77
1495893817.92,30918,15.06,74240.8,7.49,-27.83,-27.03,0,*7C
1495893819.2,30919,15.0,74234.8,7.53,-28.25,-27.45,0,*77
1495893820.49,30920,15.0,74232.8,7.53,-28.05,-27.23,0,*7F
1495893821.7,30921,15.0,74238.0,7.55,-27.07,-26.39,0,*7F
1495893822.92,30922,15.06,74238.0,7.57,-27.71,-26.87,0,*7A
1495893824.13,30923,15.0,74240.3,7.59,-28.31,-27.67,0,*71
1495893825.41,30924,15.06,74244.3,7.61,-29.51,-29.01,0,*74
1495893826.64,30925,15.0,74246.0,7.61,-29.67,-28.97,0,*7E
1495893827.89,30926,15.06,74242.8,7.61,-29.83,-29.29,0,*73
1495893829.14,30927,15.0,74244.0,7.61,-29.17,-28.37,0,*71
1495893830.4,30928,15.06,74244.0,7.61,-28.25,-27.67,0,*74
1495893831.62,30929,15.06,74242.8,7.65,-28.31,-27.77,0,*75
1495893832.87,30930,15.06,74240.5,7.63,-28.75,-28.09,0,*7D
1495893834.09,30931,15.0,74238.0,7.67,-27.51,-26.71,0,*70
1495893835.31,30932,15.06,74238.0,7.71,-27.83,-27.07,0,*7B
1495893836.51,30933,15.06,74234.8,7.67,-27.55,-26.87,0,*7F
1495893837.79,30934,15.0,74240.3,7.73,-26.97,-26.33,0,*7D
1495893839.01,30935,15.06,74240.8,7.75,-27.23,-26.61,0,*73
1495893840.23,30936,15.06,74242.5,7.79,-27.39,-26.65,0,*73
1495893841.45,30937,15.06,74240.3,7.79,-27.55,-26.81,0,*72
1495893842.73,30938,15.0,74240.5,7.83,-26.93,-26.17,0,*7C
1495893843.99,30939,15.06,74248.8,7.85,-26.29,-25.55,0,*7F
1495893845.28,30940,15.0,74250.8,7.87,-26.97,-26.29,0,*7E
1495893846.56,30941,15.06,74250.8,7.87,-26.55,-25.71,0,*7F
1495893847.8,30942,15.06,74248.0,7.93,-25.97,-25.19,0,*7A
1495893849.03,30943,15.06,74254.0,7.97,-26.61,-25.81,0,*74
1495893850.28,30944,15.06,74256.3,7.97,-28.25,-27.45,0,*77
1495893851.51,30945,15.0,74254.8,7.97,-27.99,-27.29,0,*74
1495893852.74,30946,15.0,74252.5,8.01,-27.23,-26.39,0,*76
1495893853.97,30947,15.06,74252.3,8.01,-27.23,-26.39,0,*77
1495893855.18,30948,15.0,74248.3,8.01,-26.65,-25.91,0,*7A
1495893856.41,30949,15.0,74250.0,8.05,-26.33,-25.49,0,*79
1495893857.65,30950,15.06,74250.5,8.07,-27.83,-27.13,0,*74
1495893858.9,30951,15.06,74252.5,8.07,-27.55,-26.97,0,*73
1495893860.13,30952,15.06,74250.8,8.11,-26.87,-26.03,0,*74
1495893861.35,30953,15.0,74244.0,8.15,-27.67,-26.97,0,*73
1495893862.63,30954,15.06,74246.0,8.11,-27.61,-26.93,0,*72
1495893863.88,30955,15.06,74244.0,8.15,-28.05,-27.19,0,*79
1495893865.08,30956,15.06,74244.0,8.15,-27.29,-26.49,0,*7F
1495893866.34,30957,15.0,74242.0,8.19,-26.93,-26.13,0,*7D
1495893867.58,30958,15.06,74250.0,8.21,-26.71,-25.91,0,*7C
1495893868.86,30959,15.06,74244.8,8.21,-26.93,-26.33,0,*7A
1495893870.11,30960,15.06,74244.8,8.23,-28.25,-27.61,0,*77
1495893871.3,30961,15.06,74246.0,8.23,-27.89,-27.07,0,*7F
1495893872.55,30962,15.06,74244.3,8.23,-28.09,-27.39,0,*76
1495893873.77,30963,15.06,74246.5,8.25,-28.15,-27.51,0,*72
1495893875.01,30964,15.06,74248.3,8.27,-27.83,-26.81,0,*7B
1495893876.27,30965,15.06,74248.3,8.27,-26.97,-26.29,0,*7C
1495893877.53,30966,15.06,74248.5,8.29,-26.65,-25.97,0,*7A
1495893878.78,30967,15.06,74252.8,8.31,-26.71,-25.71,0,*7F
1495893880.02,30968,15.06,74250.5,8.31,-28.21,-27.45,0,*7E
1495893881.28,30969,15.06,74246.0,8.35,-28.05,-27.39,0,*76
1495893882.5,30970,15.06,74240.8,8.35,-27.23,-26.49,0,*73
1495893883.73,30971,15.06,74240.5,8.35,-26.49,-25.71,0,*77
1495893884.95,30972,15.0,74238.5,8.39,-27.99,-27.67,0,*71
1495893886.18,30973,15.0,74242.3,8.39,-27.67,-26.81,0,*78
1495893887.4,30974,15.06,74248.5,8.41,-27.07,-26.45,0,*7E
1495893888.63,30975,15.06,74250.3,8.39,-29.01,-28.31,0,*75
1495893889.91,30976,15.06,74250.3,8.41,-28.25,-27.35,0,*75
1495893891.12,30977,15.06,74258.8,8.45,-27.71,-27.03,0,*7B
1495893892.39,30978,15.06,74254.3,8.47,-27.35,-26.55,0,*74
1495893893.65,30979,15.0,74246.8,8.47,-28.25,-27.55,0,*7A
1495893894.88,30980,15.06,74250.0,8.45,-28.15,-27.35,0,*7B
1495893896.13,30981,15.06,74250.5,8.47,-26.87,-26.17,0,*7C
1495893897.39,30982,15.06,74246.0,8.49,-26.97,-26.29,0,*7D
1495893898.67,30983,15.06,74244.3,8.51,-26.55,-25.71,0,*75
1495893899.94,30984,15.0,74240.3,8.55,-27.99,-27.23,0,*72
1495893901.18,30985,15.06,74244.5,8.53,-26.97,-26.23,0,*7B
1495893902.43,30986,15.06,74246.3,8.55,-26.17,-25.39,0,*7E
1495893903.69,30987,15.06,74252.0,8.59,-26.65,-25.81,0,*75
1495893904.93,30988,15.06,74252.8,8.59,-26.49,-25.65,0,*7E
1495893906.14,30989,15.06,74258.8,8.65,-26.39,-25.61,0,*73
1495893907.37,30990,15.06,74262.8,8.65,-26.71,-25.91,0,*78
1495893908.62,30991,15.0,74260.8,8.69,-28.09,-27.35,0,*78
1495893909.83,30992,15.06,74258.3,8.69,-28.53,-27.89,0,*73
1495893911.08,30993,15.06,74258.0,8.67,-29.89,-29.07,0,*72
1495893912.31,30994,15.0,74250.8,8.65,-29.61,-29.01,0,*77
1495893913.57,30995,15.06,74254.0,8.63,-31.73,-31.17,0,*74
1495893914.84,30996,15.06,74256.3,8.65,-31.73,-30.73,0,*72
1495893916.06,30997,15.06,74258.5,8.57,-31.17,-30.51,0,*70
1495893917.29,30998,15.06,74262.5,8.57,-31.57,-31.29,0,*75
1495893918.52,30999,15.06,74262.8,8.53,-31.91,-31.33,0,*71
1495893919.8,31000,15.0,74256.3,8.51,-30.73,-30.01,0,*76
1495893921.08,31001,15.06,74252.0,8.51,-29.35,-28.59,0,*79
1495893922.31,31002,15.06,74252.8,8.51,-27.71,-26.87,0,*79
1495893923.56,31003,15.06,74252.3,8.51,-26.93,-26.07,0,*7D
1495893924.82,31004,15.06,74252.3,8.55,-26.65,-25.81,0,*7A
1495893926.05,31005,15.06,74252.5,8.57,-26.93,-26.23,0,*7B
1495893927.33,31006,15.0,74248.3,8.63,-26.71,-25.97,0,*7F
1495893928.58,31007,15.06,74254.8,8.63,-26.93,-26.23,0,*7E
1495893929.81,31008,15.06,74252.3,8.65,-27.39,-26.61,0,*70
1495893931.08,31009,15.06,74252.8,8.67,-27.83,-27.19,0,*7C
1495893932.34,31010,15.06,74250.3,8.67,-29.39,-28.69,0,*73
1495893933.59,31011,15.06,74244.0,8.67,-28.37,-27.39,0,*77
1495893934.84,31012,15.0,74244.0,8.67,-27.35,-26.65,0,*71
1495893936.07,31013,15.0,74254.0,8.69,-27.51,-26.77,0,*7F
1495893937.33,31014,15.06,74256.8,8.71,-29.01,-28.31,0,*76
1495893938.56,31015,15.06,74252.8,8.71,-29.23,-28.31,0,*77
1495893939.81,31016,15.06,74252.5,8.71,-29.89,-29.23,0,*76
1495893941.03,31017,15.06,74250.0,8.69,-29.95,-29.29,0,*79
1495893942.23,31018,15.06,74244.3,8.69,-30.11,-29.23,0,*78
1495893943.49,31019,15.06,74254.3,8.69,-28.21,-27.39,0,*76
1495893944.72,31020,15.0,74248.3,8.69,-27.67,-26.93,0,*70
1495893945.95,31021,15.06,74250.3,8.73,-27.07,-26.29,0,*7D
1495893947.17,31022,15.06,74254.0,8.73,-27.23,-26.45,0,*72
1495893948.37,31023,15.06,74254.5,8.73,-27.29,-26.61,0,*7F
1495893949.63,31024,15.0,74256.0,8.77,-29.83,-29.13,0,*78
1495893950.89,31025,15.06,74252.8,8.75,-32.29,-31.73,0,*7E
1495893952.12,31026,15.06,74250.8,8.71,-32.69,-32.01,0,*7B
1495893953.31,31027,15.06,74244.0,8.69,-30.45,-29.61,0,*73
1495893954.52,31028,15.0,74244.5,8.69,-29.61,-28.85,0,*79
1495893955.76,31029,15.06,74254.8,8.69,-29.23,-28.25,0,*74
1495893956.98,31030,15.06,74258.0,8.69,-28.43,-27.55,0,*73
1495893958.22,31031,15.06,74262.0,8.73,-28.25,-27.29,0,*72
1495893959.46,31032,15.06,74262.5,8.71,-30.73,-30.11,0,*74
1495893960.72,31033,15.06,74260.8,8.71,-30.27,-29.35,0,*7A
1495893961.94,31034,15.06,74260.3,8.69,-30.11,-29.39,0,*7D
1495893963.19,31035,15.0,74252.0,8.67,-29.73,-28.97,0,*7B
1495893964.44,31036,15.06,74256.0,8.67,-29.07,-28.25,0,*72
1495893965.67,31037,15.06,74252.5,8.67,-27.89,-27.07,0,*74
1495893966.9,31038,15.06,74248.0,8.73,-27.07,-26.29,0,*75
1495893968.16,31039,15.06,74244.3,8.71,-28.79,-28.15,0,*71
1495893969.4,31040,15.06,74244.8,8.73,-28.47,-27.83,0,*70
1495893970.62,31041,15.06,74244.0,8.73,-28.43,-27.77,0,*7E
1495893971.88,31042,15.06,74242.8,8.73,-29.35,-28.63,0,*77
1495893973.1,31043,15.06,74238.8,8.73,-28.15,-27.39,0,*75
1495893974.36,31044,15.06,74240.3,8.75,-26.77,-26.03,0,*76
1495893975.59,31045,15.06,74252.8,8.77,-27.93,-27.07,0,*7B
1495893976.85,31046,15.06,74262.3,8.77,-28.09,-27.67,0,*72
1495893978.1,31047,15.06,74266.5,8.81,-29.17,-28.37,0,*7E
1495893979.36,31048,15.06,74266.8,8.79,-29.17,-27.99,0,*7D
1495893980.58,31049,15.06,74266.3,8.79,-30.11,-29.39,0,*76
1495893981.86,31050,15.06,74260.5,8.75,-31.85,-31.23,0,*7C
1495893983.11,31051,15.06,74260.0,8.75,-32.57,-32.07,0,*74
1495893984.37,31052,15.06,74254.8,8.71,-33.27,-32.69,0,*7D
1495893985.57,31053,15.06,74256.3,8.69,-32.91,-32.23,0,*77
1495893986.82,31054,15.06,74256.5,8.67,-33.55,-33.09,0,*7E
1495893988.09,31055,15.06,74254.5,8.63,-33.61,-32.97,0,*7A
1495893989.31,31056,15.06,74258.3,8.57,-30.11,-29.13,0,*7C
1495893990.56,31057,15.06,74256.0,8.57,-30.77,-29.89,0,*7E
1495893991.81,31058,15.06,74256.5,8.57,-32.63,-31.91,0,*76
1495893993.06,31059,15.06,74256.3,8.55,-30.61,-29.79,0,*7A
1495893994.28,31060,15.06,74258.3,8.57,-31.17,-30.51,0,*70
1495893995.57,31061,15.06,74254.3,8.55,-29.39,-28.59,0,*77
1495893996.82,31062,15.06,74254.8,8.53,-29.13,-28.47,0,*75
1495893998.08,31063,15.06,74254.3,8.57,-28.91,-28.21,0,*7B
1495893999.31,31064,15.06,74250.3,8.59,-29.67,-28.97,0,*77
1495894000.51,31065,15.06,74250.0,8.57,-29.57,-28.85,0,*78
1495894001.77,31066,15.06,74244.3,8.59,-28.79,-27.93,0,*70
1495894003.05,31067,15.06,74244.0,8.59,-29.51,-28.79,0,*71
1495894004.33,31068,15.06,74246.8,8.63,-29.13,-28.25,0,*78
1495894005.55,31069,15.06,74248.0,8.63,-30.23,-29.45,0,*75
1495894006.8,31070,15.06,74240.0,8.63,-30.51,-29.67,0,*78
1495894008.03,31071,15.06,74240.0,8.63,-30.83,-30.23,0,*7E
1495894009.28,31072,15.06,74242.8,8.63,-30.51,-29.61,0,*7C
1495894010.54,31073,15.06,74238.3,8.59,-31.33,-30.73,0,*7A
1495894011.79,31074,15.06,74236.5,8.59,-30.23,-29.51,0,*75
1495894013.02,31075,15.06,74234.3,8.57,-28.43,-27.67,0,*7E
1495894014.3,31076,15.06,74234.5,8.59,-28.21,-27.35,0,*70
1495894015.55,31077,15.06,74236.3,8.65,-28.75,-28.09,0,*7F
1495894016.8,31078,15.06,74244.0,8.65,-28.43,-27.45,0,*72
1495894018.04,31079,15.06,74242.8,8.65,-29.45,-28.63,0,*7F
1495894019.3,31080,15.06,74242.8,8.67,-29.07,-28.25,0,*7F
1495894020.55,31081,15.06,74240.3,8.67,-28.53,-27.83,0,*7D
1495894021.76,31082,15.06,74240.8,8.69,-28.69,-27.93,0,*78
1495894023.0,31083,15.06,74244.3,8.69,-30.51,-29.73,0,*7B
1495894024.24,31084,15.06,74244.3,8.69,-28.85,-28.05,0,*7C
1495894025.45,31085,15.06,74246.5,8.69,-28.37,-27.67,0,*7F
1495894026.66,31086,15.06,74244.3,8.69,-27.71,-27.03,0,*73
1495894027.91,31087,15.06,74242.5,8.73,-27.61,-26.81,0,*73
1495894029.17,31088,15.06,74248.5,8.75,-28.21,-27.51,0,*7D
1495894030.44,31089,15.06,74254.3,8.75,-32.29,-31.85,0,*71
1495894031.69,31090,15.06,74258.5,8.73,-32.19,-31.61,0,*76
1495894032.93,31091,15.06,74262.8,8.71,-32.91,-32.19,0,*79
1495894034.18,31092,15.06,74258.0,8.67,-35.47,-34.83,0,*74
1495894035.42,31093,15.06,74242.8,8.65,-32.69,-31.95,0,*7E
1495894036.67,31094,15.06,74246.0,8.59,-30.61,-29.83,0,*72
1495894037.92,31095,15.06,74244.8,8.59,-30.23,-29.39,0,*74
1495894039.19,31096,15.06,74246.8,8.59,-30.01,-29.17,0,*7B
1495894040.47,31097,15.06,74246.3,8.59,-32.19,-31.61,0,*79
1495894041.72,31098,15.06,74240.3,8.57,-34.83,-34.19,0,*77
1495894042.93,31099,15.06,74248.3,8.53,-33.21,-32.51,0,*77
1495894044.2,31100,15.06,74248.5,8.51,-32.63,-31.91,0,*7C
1495894045.4,31101,15.06,74244.8,8.49,-33.55,-32.91,0,*73
1495894046.63,31102,15.06,74250.0,8.47,-33.83,-33.15,0,*78
1495894047.89,31103,15.06,74250.8,8.45,-33.27,-32.63,0,*75
1495894049.11,31104,15.06,74252.8,8.39,-35.01,-34.53,0,*7E
1495894050.33,31105,15.06,74246.0,8.33,-34.77,-34.41,0,*76
1495894051.52,31106,15.06,74244.0,8.31,-35.01,-34.41,0,*77
1495894052.79,31107,15.06,74240.3,8.29,-35.65,-35.23,0,*78
1495894054.04,31108,15.06,74232.0,8.25,-36.07,-35.65,0,*7E
1495894055.29,31109,15.06,74238.0,8.21,-34.47,-34.01,0,*7E
1495894056.57,31110,15.06,74238.3,8.17,-36.61,-36.37,0,*72
1495894057.79,31111,15.06,74234.3,8.17,-35.47,-34.89,0,*73
1495894059.01,31112,15.06,74228.3,8.11,-35.13,-34.47,0,*75
1495894060.23,31113,15.06,74236.5,8.07,-33.95,-33.15,0,*7B
1495894061.47,31114,15.06,74238.0,8.07,-35.07,-34.41,0,*77
1495894062.7,31115,15.06,74238.3,8.05,-36.55,-36.25,0,*70
1495894063.93,31116,15.06,74230.0,7.99,-37.27,-36.73,0,*7E
1495894065.13,31117,15.06,74230.5,7.97,-33.03,-32.35,0,*75
1495894066.41,31118,15.06,74232.5,7.99,-29.29,-28.59,0,*76
1495894067.68,31119,15.06,74240.3,7.99,-29.51,-28.79,0,*7A
1495894068.93,31120,15.06,74242.5,8.01,-32.45,-32.63,0,*71
1495894070.16,31121,15.06,74236.8,7.99,-36.67,-36.31,0,*79
1495894071.42,31122,15.06,74234.5,7.95,-33.95,-33.27,0,*7C
1495894072.62,31123,15.06,74228.0,7.97,-33.15,-32.51,0,*77
1495894073.85,31124,15.06,74232.5,7.95,-33.21,-32.69,0,*7E
1495894075.13,31125,15.06,74236.8,7.95,-31.11,-30.39,0,*79
1495894076.36,31126,15.06,74238.8,7.95,-30.11,-29.57,0,*7B
1495894077.64,31127,15.06,74242.3,7.95,-31.51,-30.73,0,*71
1495894078.88,31128,15.06,74244.5,7.95,-32.13,-31.45,0,*7F
1495894080.16,31129,15.06,74246.0,7.95,-29.51,-28.79,0,*75
1495894081.41,31130,15.06,74244.5,7.97,-32.29,-31.95,0,*70
1495894082.62,31131,15.06,74240.5,7.97,-31.79,-31.29,0,*70
1495894083.84,31132,15.06,74238.0,7.97,-30.51,-29.79,0,*74
1495894085.07,31133,15.06,74236.5,7.97,-30.73,-30.23,0,*72
1495894086.31,31134,15.06,74236.3,7.99,-29.83,-29.13,0,*77
1495894087.59,31135,15.06,74242.8,7.99,-28.63,-28.05,0,*7F
1495894088.84,31136,15.06,74240.8,8.03,-29.17,-28.53,0,*71
1495894090.09,31137,15.06,74240.5,8.05,-28.21,-27.45,0,*7A
1495894091.34,31138,15.06,74240.5,8.05,-28.21,-27.45,0,*75
1495894092.56,31139,15.06,74238.3,8.09,-27.93,-26.93,0,*74
1495894093.81,31140,15.06,74242.3,8.11,-27.93,-27.23,0,*79
1495894095.03,31141,15.06,74242.8,8.15,-29.17,-28.53,0,*76
1495894096.25,31142,15.06,74242.3,8.15,-29.23,-28.47,0,*77
1495894097.51,31143,15.06,74240.5,8.17,-27.67,-26.81,0,*7E
1495894098.73,31144,15.06,74246.5,8.19,-28.47,-27.77,0,*72
1495894100.0,31145,15.06,74244.0,8.21,-27.35,-26.71,0,*75
1495894101.22,31146,15.06,74246.3,8.23,-29.07,-28.21,0,*70
1495894102.48,31147,15.06,74246.5,8.25,-28.85,-28.21,0,*7C
1495894103.72,31148,15.06,74242.8,8.27,-29.73,-29.01,0,*7A
1495894104.96,31149,15.06,74246.5,8.27,-29.73,-29.17,0,*7C
1495894106.21,31150,15.06,74244.5,8.27,-28.25,-27.61,0,*79
1495894107.43,31151,15.06,74246.5,8.27,-28.97,-28.47,0,*7A
1495894108.66,31152,15.06,74244.8,8.29,-27.77,-27.07,0,*7D